map of ABV home
ABV - Airport
Location
City:  Abuja, Abuja Federal Capital Territory, Nigeria
Name:Nnamdi Azikiwe International Airport
ICAO:DNAA
IATA:ABV

Details
Type:Airport (Aerodrome, Airfield)
Use:Public/Civil, International (customs port of entry)
Latitude:900'24"N (9.006792)
Longitude:715'47"E (7.263172)
Datum:WGS 1984
Elevation:1123 ft (342 m)
Variation:0.76W (WMM2015 magnetic declination)
0.10 annual change
Runways:1
Longest:11842 × 197 ft (3609 × 60 m), paved

Time
Time Zone:UTC+1
Local Time:

Weather
METAR:DNAA 251700Z 25003KT 9999 -TSRA FEW007 FEW018CB 21/19 Q1013 NOSIG RMK CB?N TO SE?
TAF:DNAA 251540Z 2518/2624 09004KT 8000 -TSRA BKN007 FEW018CB
BECMG 2518/2520 16003KT 9999 NSW FEW008 PROB30
TEMPO 2604/2607 VRB02KT 5000 BR BKN008
BECMG 2607/2609 24010KT BKN010

Related Locations
Nearby:
Farthest:AAU: 12121 mi / 19506 km
Asau, WS

Find:

   beyond  
but within

Other Information
Maps:
NOTAMs:
Links:
Sources:

  
  • flag of Nigeria
  

Sectional Chart

Flight Planning
at skyvector.com

Satellite Image

Google Maps Satellite view

 

Copyright © 2004-2018 Karl L. Swartz. All rights reserved.
The Great Circle Mapper name and logo are trademarks of the Great Circle Mapper.
All other trademarks mentioned herein belong to their respective owners.
Please see credits for attibutions and further copyright information.

  Follow gcmap on Facebook Follow gcmap on Twitter Follow gcmap on Google+ GCmap on LinkedIn

hCard Microformat

Geo Microformat